Kalamazoo, MI

3:25 PM EDT on July 22, 2017 (GMT -0400)
Kalamazoo-Battle Creek International

Weather History for KAZO - March, 2013

Change the Weather History Date:

Friday, March 8, 2013

  Actual Average Record
Temperature  
Mean Temperature 30 °F 33 °F  
Max Temperature 40 °F 42 °F 72 °F (2016)
Min Temperature 19 °F 25 °F 1 °F (1960)
Degree Days  
Heating Degree Days 35 32  
Month to date heating degree days 299 265  
Since 1 July heating degree days 4849 5038  
Cooling Degree Days 0 0  
Month to date cooling degree days 0 0  
Year to date cooling degree days 0 0  
Moisture  
Dew Point 20 °F    
Average Humidity 70    
Maximum Humidity 92    
Minimum Humidity 48    
Precipitation  
Precipitation 0.00 in 0.08 in 1.09 in (2009)
Month to date precipitation T 0.60  
Year to date precipitation 4.66 3.84  
Sea Level Pressure  
Sea Level Pressure 30.47 in    
Wind  
Wind Speed 1 mph (South)    
Max Wind Speed 9 mph    
Max Gust Speed 14 mph    
Visibility 9 miles    
Events      
T = Trace of Precipitation, MM = Missing Value Source: NWS Daily Summary

Daily Weather History Graph

Daily Weather History Graph

Search for Another Location

Airport or City:

Trip Planner

Search our weather history database for the weather conditions in past years. The results will help you decide how hot, cold, wet, or windy it might be!

Date:

Astronomy

Mar. 08, 2013 Rise Set
Actual Time 7:05 AM EST 6:40 PM EST
Civil Twilight 6:37 AM EST 7:08 PM EST
Nautical Twilight 6:05 AM EST 7:41 PM EST
Astronomical Twilight 5:32 AM EST 8:14 PM EST
Moon 4:52 AM EST (3/8) 3:32 PM EST (3/8)
Length of Visible Light 12h 31m
Length of Day
11h 35m
Waning Crescent, 12% of the Moon is Illuminated
Mar 8
Waning Crescent
Mar 11
New
Mar 19
First Quarter
Mar 27
Full
Apr 3
Last Quarter

Hourly Weather History & Observations

Time (EST) Temp. Windchill Dew Point Humidity Pressure Visibility Wind Dir Wind Speed Gust Speed Precip Events Conditions
12:53 AM 24.1 °F - 19.0 °F 81% 30.45 in 10.0 mi Calm Calm - N/A   Clear
1:53 AM 24.1 °F - 19.0 °F 81% 30.46 in 10.0 mi Calm Calm - N/A   Clear
2:53 AM 23.0 °F - 19.0 °F 85% 30.46 in 9.0 mi Calm Calm - N/A   Clear
3:53 AM 21.9 °F - 18.0 °F 85% 30.47 in 8.0 mi Calm Calm - N/A   Clear
4:53 AM 19.0 °F - 17.1 °F 92% 30.48 in 7.0 mi Calm Calm - N/A   Clear
5:53 AM 19.0 °F - 17.1 °F 92% 30.50 in 7.0 mi Calm Calm - N/A   Clear
6:53 AM 19.9 °F - 17.1 °F 89% 30.51 in 7.0 mi Calm Calm - N/A   Clear
7:53 AM 21.0 °F - 19.0 °F 92% 30.52 in 5.0 mi Calm Calm - N/A   Clear
8:53 AM 28.0 °F - 21.9 °F 78% 30.53 in 7.0 mi Calm Calm - N/A   Clear
9:53 AM 32.0 °F - 21.0 °F 64% 30.53 in 10.0 mi Calm Calm - N/A   Clear
10:53 AM 33.1 °F - 21.0 °F 61% 30.53 in 10.0 mi Calm Calm - N/A   Clear
11:53 AM 35.1 °F - 19.9 °F 54% 30.52 in 10.0 mi Calm Calm - N/A   Clear
12:53 PM 37.0 °F - 21.0 °F 52% 30.51 in 10.0 mi Calm Calm - N/A   Clear
1:53 PM 37.9 °F 32.7 °F 23.0 °F 55% 30.47 in 10.0 mi South 6.9 mph - N/A   Clear
2:53 PM 39.0 °F 34.8 °F 21.0 °F 49% 30.47 in 10.0 mi South 5.8 mph - N/A   Clear
3:53 PM 39.0 °F 34.0 °F 21.9 °F 50% 30.46 in 10.0 mi South 6.9 mph - N/A   Clear
4:53 PM 39.9 °F 36.7 °F 21.9 °F 49% 30.45 in 10.0 mi ESE 4.6 mph - N/A   Clear
5:53 PM 37.9 °F 35.5 °F 23.0 °F 55% 30.44 in 10.0 mi Variable 3.5 mph - N/A   Clear
6:53 PM 37.0 °F 34.5 °F 21.0 °F 52% 30.44 in 10.0 mi SSE 3.5 mph - N/A   Clear
7:53 PM 34.0 °F - 21.0 °F 59% 30.45 in 10.0 mi Calm Calm - N/A   Clear
8:53 PM 32.0 °F - 21.0 °F 64% 30.45 in 10.0 mi Calm Calm - N/A   Clear
9:53 PM 28.9 °F - 21.9 °F 75% 30.45 in 10.0 mi Calm Calm - N/A   Clear
10:53 PM 28.0 °F - 21.0 °F 75% 30.43 in 10.0 mi Calm Calm - N/A   Clear
11:53 PM 28.0 °F - 21.0 °F 75% 30.42 in 9.0 mi Calm Calm - N/A   Clear